iso_date,epoch_date,Year,Hour,Min,DOY,POS_DOY,Lat,Lon,BP,Ts,Ta,has_bp,has_ts,has_ta,BuoyID,Buoy_Type,Buoy_Owner,Logistics,Hemisphere
2021-08-20T00:15:59Z,1629418559,2021,0,16,232.0111,232.0111,70.06537,-52.36261,-999.00,-999.00,-999.0,no,no,no,4435372,SPIT,USIABP,ICE-PPR<br>DiskoBay,North
2021-08-20T00:26:03Z,1629419164,2021,0,26,232.0181,232.0181,70.06542,-52.36246,-999.00,-999.00,-999.0,no,no,no,4435372,SPIT,USIABP,ICE-PPR<br>DiskoBay,North
2021-08-20T00:36:00Z,1629419760,2021,0,36,232.025,232.025,70.0654,-52.36272,-999.00,-999.00,-999.0,no,no,no,4435372,SPIT,USIABP,ICE-PPR<br>DiskoBay,North
2021-08-20T01:05:57Z,1629421557,2021,1,6,232.0458,232.0458,70.06544,-52.36246,-999.00,-999.00,-999.0,no,no,no,4435372,SPIT,USIABP,ICE-PPR<br>DiskoBay,North
2021-08-20T01:35:02Z,1629423302,2021,1,35,232.066,232.066,70.06523,-52.3627,-999.00,-999.00,-999.0,no,no,no,4435372,SPIT,USIABP,ICE-PPR<br>DiskoBay,North
2021-08-20T02:06:00Z,1629425160,2021,2,6,232.0875,232.0875,70.06511,-52.36383,-999.00,-999.00,-999.0,no,no,no,4435372,SPIT,USIABP,ICE-PPR<br>DiskoBay,North
2021-08-20T02:34:56Z,1629426897,2021,2,35,232.1076,232.1076,70.0651,-52.36429,-999.00,-999.00,-999.0,no,no,no,4435372,SPIT,USIABP,ICE-PPR<br>DiskoBay,North
2021-08-20T03:05:02Z,1629428702,2021,3,5,232.1285,232.1285,70.06515,-52.36383,-999.00,-999.00,-999.0,no,no,no,4435372,SPIT,USIABP,ICE-PPR<br>DiskoBay,North
2021-08-20T04:03:56Z,1629432236,2021,4,4,232.1694,232.1694,70.06511,-52.36238,-999.00,-999.00,-999.0,no,no,no,4435372,SPIT,USIABP,ICE-PPR<br>DiskoBay,North
2021-08-20T04:34:01Z,1629434042,2021,4,34,232.1903,232.1903,70.06447,-52.36075,-999.00,-999.00,-999.0,no,no,no,4435372,SPIT,USIABP,ICE-PPR<br>DiskoBay,North
2021-08-20T05:03:59Z,1629435839,2021,5,4,232.2111,232.2111,70.06458,-52.36017,-999.00,-999.00,-999.0,no,no,no,4435372,SPIT,USIABP,ICE-PPR<br>DiskoBay,North
2021-08-20T05:33:56Z,1629437636,2021,5,34,232.2319,232.2319,70.0648,-52.35965,-999.00,-999.00,-999.0,no,no,no,4435372,SPIT,USIABP,ICE-PPR<br>DiskoBay,North
2021-08-20T06:04:01Z,1629439442,2021,6,4,232.2528,232.2528,70.06476,-52.35974,-999.00,-999.00,-999.0,no,no,no,4435372,SPIT,USIABP,ICE-PPR<br>DiskoBay,North
2021-08-20T06:32:58Z,1629441179,2021,6,33,232.2729,232.2729,70.06461,-52.36087,-999.00,-999.00,-999.0,no,no,no,4435372,SPIT,USIABP,ICE-PPR<br>DiskoBay,North
2021-08-20T07:02:55Z,1629442976,2021,7,3,232.2937,232.2937,70.06487,-52.35966,-999.00,-999.00,-999.0,no,no,no,4435372,SPIT,USIABP,ICE-PPR<br>DiskoBay,North
2021-08-20T07:33:01Z,1629444781,2021,7,33,232.3146,232.3146,70.06444,-52.36043,-999.00,-999.00,-999.0,no,no,no,4435372,SPIT,USIABP,ICE-PPR<br>DiskoBay,North
2021-08-20T08:02:58Z,1629446579,2021,8,3,232.3354,232.3354,70.06465,-52.36017,-999.00,-999.00,-999.0,no,no,no,4435372,SPIT,USIABP,ICE-PPR<br>DiskoBay,North
2021-08-20T08:32:03Z,1629448324,2021,8,32,232.3556,232.3556,70.06462,-52.36011,-999.00,-999.00,-999.0,no,no,no,4435372,SPIT,USIABP,ICE-PPR<br>DiskoBay,North
2021-08-20T09:03:01Z,1629450181,2021,9,3,232.3771,232.3771,70.06489,-52.36044,-999.00,-999.00,-999.0,no,no,no,4435372,SPIT,USIABP,ICE-PPR<br>DiskoBay,North
2021-08-20T09:31:58Z,1629451918,2021,9,32,232.3972,232.3972,70.06504,-52.36298,-999.00,-999.00,-999.0,no,no,no,4435372,SPIT,USIABP,ICE-PPR<br>DiskoBay,North
2021-08-20T11:32:03Z,1629459124,2021,11,32,232.4806,232.4806,69.97404,-52.31849,-999.00,-999.00,-999.0,no,no,no,4435372,SPIT,USIABP,ICE-PPR<br>DiskoBay,North
2021-08-20T12:02:00Z,1629460921,2021,12,2,232.5014,232.5014,69.96845,-52.27283,-999.00,-999.00,-999.0,no,no,no,4435372,SPIT,USIABP,ICE-PPR<br>DiskoBay,North
2021-08-20T12:30:57Z,1629462658,2021,12,31,232.5215,232.5215,69.97307,-52.27045,-999.00,-999.00,-999.0,no,no,no,4435372,SPIT,USIABP,ICE-PPR<br>DiskoBay,North
2021-08-20T13:02:03Z,1629464524,2021,13,2,232.5431,232.5431,69.96456,-52.21649,-999.00,-999.00,-999.0,no,no,no,4435372,SPIT,USIABP,ICE-PPR<br>DiskoBay,North
2021-08-20T13:31:00Z,1629466260,2021,13,31,232.5632,232.5632,69.92246,-52.13809,-999.00,-999.00,-999.0,no,no,no,4435372,SPIT,USIABP,ICE-PPR<br>DiskoBay,North
2021-08-20T14:00:57Z,1629468058,2021,14,1,232.584,232.584,69.86921,-52.0383,-999.00,-999.00,-999.0,no,no,no,4435372,SPIT,USIABP,ICE-PPR<br>DiskoBay,North
2021-08-20T14:31:03Z,1629469863,2021,14,31,232.6049,232.6049,69.81858,-51.80004,-999.00,-999.00,-999.0,no,no,no,4435372,SPIT,USIABP,ICE-PPR<br>DiskoBay,North
2021-08-20T15:01:00Z,1629471660,2021,15,1,232.6257,232.6257,69.78841,-51.63739,-999.00,-999.00,-999.0,no,no,no,4435372,SPIT,USIABP,ICE-PPR<br>DiskoBay,North
2021-08-20T15:29:57Z,1629473397,2021,15,30,232.6458,232.6458,69.78699,-51.62119,-999.00,-999.00,-999.0,no,no,no,4435372,SPIT,USIABP,ICE-PPR<br>DiskoBay,North
2021-08-20T16:00:02Z,1629475203,2021,16,0,232.6667,232.6667,69.80641,-51.65216,-999.00,-999.00,-999.0,no,no,no,4435372,SPIT,USIABP,ICE-PPR<br>DiskoBay,North
2021-08-20T16:28:59Z,1629476940,2021,16,29,232.6868,232.6868,69.80526,-51.6499,-999.00,-999.00,-999.0,no,no,no,4435372,SPIT,USIABP,ICE-PPR<br>DiskoBay,North
2021-08-20T16:58:56Z,1629478737,2021,16,59,232.7076,232.7076,69.80526,-51.64612,-999.00,-999.00,-999.0,no,no,no,4435372,SPIT,USIABP,ICE-PPR<br>DiskoBay,North
2021-08-20T17:29:02Z,1629480542,2021,17,29,232.7285,232.7285,69.80525,-51.64282,-999.00,-999.00,-999.0,no,no,no,4435372,SPIT,USIABP,ICE-PPR<br>DiskoBay,North
2021-08-20T17:58:59Z,1629482340,2021,17,59,232.7493,232.7493,69.80534,-51.64026,-999.00,-999.00,-999.0,no,no,no,4435372,SPIT,USIABP,ICE-PPR<br>DiskoBay,North
2021-08-20T18:59:02Z,1629485942,2021,18,59,232.791,232.791,69.80646,-51.63538,-999.00,-999.00,-999.0,no,no,no,4435372,SPIT,USIABP,ICE-PPR<br>DiskoBay,North
2021-08-20T19:28:59Z,1629487740,2021,19,29,232.8118,232.8118,69.80719,-51.63281,-999.00,-999.00,-999.0,no,no,no,4435372,SPIT,USIABP,ICE-PPR<br>DiskoBay,North
2021-08-20T19:58:56Z,1629489537,2021,19,59,232.8326,232.8326,69.80835,-51.63028,-999.00,-999.00,-999.0,no,no,no,4435372,SPIT,USIABP,ICE-PPR<br>DiskoBay,North
2021-08-20T20:28:01Z,1629491282,2021,20,28,232.8528,232.8528,69.80977,-51.62789,-999.00,-999.00,-999.0,no,no,no,4435372,SPIT,USIABP,ICE-PPR<br>DiskoBay,North
2021-08-20T20:57:59Z,1629493079,2021,20,58,232.8736,232.8736,69.81157,-51.6254,-999.00,-999.00,-999.0,no,no,no,4435372,SPIT,USIABP,ICE-PPR<br>DiskoBay,North
2021-08-20T21:27:56Z,1629494876,2021,21,28,232.8944,232.8944,69.81334,-51.62277,-999.00,-999.00,-999.0,no,no,no,4435372,SPIT,USIABP,ICE-PPR<br>DiskoBay,North
2021-08-20T22:27:59Z,1629498479,2021,22,28,232.9361,232.9361,69.81771,-51.61798,-999.00,-999.00,-999.0,no,no,no,4435372,SPIT,USIABP,ICE-PPR<br>DiskoBay,North
2021-08-20T22:57:56Z,1629500276,2021,22,58,232.9569,232.9569,69.82007,-51.61609,-999.00,-999.00,-999.0,no,no,no,4435372,SPIT,USIABP,ICE-PPR<br>DiskoBay,North
2021-08-20T23:27:01Z,1629502021,2021,23,27,232.9771,232.9771,69.82248,-51.61499,-999.00,-999.00,-999.0,no,no,no,4435372,SPIT,USIABP,ICE-PPR<br>DiskoBay,North
2021-08-21T01:25:58Z,1629509158,2021,1,26,233.0597,233.0597,69.83305,-51.6218,-999.00,-999.00,-999.0,no,no,no,4435372,SPIT,USIABP,ICE-PPR<br>DiskoBay,North
2021-08-21T01:56:03Z,1629510964,2021,1,56,233.0806,233.0806,69.83544,-51.62446,-999.00,-999.00,-999.0,no,no,no,4435372,SPIT,USIABP,ICE-PPR<br>DiskoBay,North
2021-08-21T02:26:00Z,1629512761,2021,2,26,233.1014,233.1014,69.83772,-51.62738,-999.00,-999.00,-999.0,no,no,no,4435372,SPIT,USIABP,ICE-PPR<br>DiskoBay,North
2021-08-21T02:55:58Z,1629514558,2021,2,56,233.1222,233.1222,69.83982,-51.63051,-999.00,-999.00,-999.0,no,no,no,4435372,SPIT,USIABP,ICE-PPR<br>DiskoBay,North
2021-08-21T03:26:03Z,1629516364,2021,3,26,233.1431,233.1431,69.84171,-51.63403,-999.00,-999.00,-999.0,no,no,no,4435372,SPIT,USIABP,ICE-PPR<br>DiskoBay,North
2021-08-21T05:54:57Z,1629525298,2021,5,55,233.2465,233.2465,69.84957,-51.64227,-999.00,-999.00,-999.0,no,no,no,4435372,SPIT,USIABP,ICE-PPR<br>DiskoBay,North
2021-08-21T06:25:03Z,1629527103,2021,6,25,233.2674,233.2674,69.85093,-51.64278,-999.00,-999.00,-999.0,no,no,no,4435372,SPIT,USIABP,ICE-PPR<br>DiskoBay,North
2021-08-21T06:55:00Z,1629528900,2021,6,55,233.2882,233.2882,69.85248,-51.64227,-999.00,-999.00,-999.0,no,no,no,4435372,SPIT,USIABP,ICE-PPR<br>DiskoBay,North
2021-08-21T07:23:57Z,1629530637,2021,7,24,233.3083,233.3083,69.85402,-51.64129,-999.00,-999.00,-999.0,no,no,no,4435372,SPIT,USIABP,ICE-PPR<br>DiskoBay,North
2021-08-21T07:54:02Z,1629532443,2021,7,54,233.3292,233.3292,69.85531,-51.63983,-999.00,-999.00,-999.0,no,no,no,4435372,SPIT,USIABP,ICE-PPR<br>DiskoBay,North
2021-08-21T08:24:00Z,1629534240,2021,8,24,233.35,233.35,69.85657,-51.63748,-999.00,-999.00,-999.0,no,no,no,4435372,SPIT,USIABP,ICE-PPR<br>DiskoBay,North
2021-08-21T08:53:57Z,1629536037,2021,8,54,233.3708,233.3708,69.85783,-51.63475,-999.00,-999.00,-999.0,no,no,no,4435372,SPIT,USIABP,ICE-PPR<br>DiskoBay,North
2021-08-21T09:24:02Z,1629537843,2021,9,24,233.3917,233.3917,69.85912,-51.63312,-999.00,-999.00,-999.0,no,no,no,4435372,SPIT,USIABP,ICE-PPR<br>DiskoBay,North
2021-08-21T09:52:59Z,1629539580,2021,9,53,233.4118,233.4118,69.8608,-51.63251,-999.00,-999.00,-999.0,no,no,no,4435372,SPIT,USIABP,ICE-PPR<br>DiskoBay,North
2021-08-21T10:22:56Z,1629541377,2021,10,23,233.4326,233.4326,69.86269,-51.63242,-999.00,-999.00,-999.0,no,no,no,4435372,SPIT,USIABP,ICE-PPR<br>DiskoBay,North
2021-08-21T11:22:59Z,1629544980,2021,11,23,233.4743,233.4743,69.86726,-51.63586,-999.00,-999.00,-999.0,no,no,no,4435372,SPIT,USIABP,ICE-PPR<br>DiskoBay,North
2021-08-21T12:51:59Z,1629550319,2021,12,52,233.5361,233.5361,69.87566,-51.64438,-999.00,-999.00,-999.0,no,no,no,4435372,SPIT,USIABP,ICE-PPR<br>DiskoBay,North
2021-08-21T13:21:56Z,1629552116,2021,13,22,233.5569,233.5569,69.87793,-51.64627,-999.00,-999.00,-999.0,no,no,no,4435372,SPIT,USIABP,ICE-PPR<br>DiskoBay,North
2021-08-21T13:52:01Z,1629553922,2021,13,52,233.5778,233.5778,69.88029,-51.64902,-999.00,-999.00,-999.0,no,no,no,4435372,SPIT,USIABP,ICE-PPR<br>DiskoBay,North
2021-08-21T14:20:58Z,1629555659,2021,14,21,233.5979,233.5979,69.88236,-51.65177,-999.00,-999.00,-999.0,no,no,no,4435372,SPIT,USIABP,ICE-PPR<br>DiskoBay,North
2021-08-21T14:51:04Z,1629557464,2021,14,51,233.6188,233.6188,69.884,-51.65409,-999.00,-999.00,-999.0,no,no,no,4435372,SPIT,USIABP,ICE-PPR<br>DiskoBay,North
2021-08-21T15:21:01Z,1629559261,2021,15,21,233.6396,233.6396,69.88554,-51.65701,-999.00,-999.00,-999.0,no,no,no,4435372,SPIT,USIABP,ICE-PPR<br>DiskoBay,North
2021-08-21T15:50:58Z,1629561059,2021,15,51,233.6604,233.6604,69.88702,-51.66022,-999.00,-999.00,-999.0,no,no,no,4435372,SPIT,USIABP,ICE-PPR<br>DiskoBay,North
2021-08-21T19:20:03Z,1629573604,2021,19,20,233.8056,233.8056,69.8964,-51.67206,-999.00,-999.00,-999.0,no,no,no,4435372,SPIT,USIABP,ICE-PPR<br>DiskoBay,North
2021-08-21T21:48:57Z,1629582538,2021,21,49,233.909,233.909,69.90595,-51.67944,-999.00,-999.00,-999.0,no,no,no,4435372,SPIT,USIABP,ICE-PPR<br>DiskoBay,North
2021-08-22T00:18:00Z,1629591480,2021,0,18,234.0125,234.0125,69.91701,-51.69956,-999.00,-999.00,-999.0,no,no,no,4435372,SPIT,USIABP,ICE-PPR<br>DiskoBay,North
2021-08-22T00:47:57Z,1629593277,2021,0,48,234.0333,234.0333,69.91921,-51.7054,-999.00,-999.00,-999.0,no,no,no,4435372,SPIT,USIABP,ICE-PPR<br>DiskoBay,North
2021-08-22T01:18:02Z,1629595083,2021,1,18,234.0542,234.0542,69.9214,-51.71149,-999.00,-999.00,-999.0,no,no,no,4435372,SPIT,USIABP,ICE-PPR<br>DiskoBay,North
2021-08-22T06:15:59Z,1629612959,2021,6,16,234.2611,234.2611,69.93185,-51.75266,-999.00,-999.00,-999.0,no,no,no,4435372,SPIT,USIABP,ICE-PPR<br>DiskoBay,North
2021-08-22T07:16:01Z,1629616562,2021,7,16,234.3028,234.3028,69.9338,-51.75177,-999.00,-999.00,-999.0,no,no,no,4435372,SPIT,USIABP,ICE-PPR<br>DiskoBay,North
2021-08-22T07:45:59Z,1629618359,2021,7,46,234.3236,234.3236,69.9345,-51.74971,-999.00,-999.00,-999.0,no,no,no,4435372,SPIT,USIABP,ICE-PPR<br>DiskoBay,North
2021-08-22T08:15:56Z,1629620156,2021,8,16,234.3444,234.3444,69.93505,-51.74756,-999.00,-999.00,-999.0,no,no,no,4435372,SPIT,USIABP,ICE-PPR<br>DiskoBay,North
2021-08-22T08:45:01Z,1629621901,2021,8,45,234.3646,234.3646,69.93586,-51.74703,-999.00,-999.00,-999.0,no,no,no,4435372,SPIT,USIABP,ICE-PPR<br>DiskoBay,North
2021-08-22T09:14:58Z,1629623699,2021,9,15,234.3854,234.3854,69.93689,-51.74652,-999.00,-999.00,-999.0,no,no,no,4435372,SPIT,USIABP,ICE-PPR<br>DiskoBay,North
2021-08-22T09:44:55Z,1629625496,2021,9,45,234.4062,234.4062,69.93783,-51.74695,-999.00,-999.00,-999.0,no,no,no,4435372,SPIT,USIABP,ICE-PPR<br>DiskoBay,North
2021-08-22T10:15:01Z,1629627301,2021,10,15,234.4271,234.4271,69.93897,-51.74899,-999.00,-999.00,-999.0,no,no,no,4435372,SPIT,USIABP,ICE-PPR<br>DiskoBay,North
2021-08-22T10:43:58Z,1629629038,2021,10,44,234.4472,234.4472,69.94056,-51.75182,-999.00,-999.00,-999.0,no,no,no,4435372,SPIT,USIABP,ICE-PPR<br>DiskoBay,North
2021-08-22T11:14:03Z,1629630844,2021,11,14,234.4681,234.4681,69.94193,-51.75465,-999.00,-999.00,-999.0,no,no,no,4435372,SPIT,USIABP,ICE-PPR<br>DiskoBay,North
2021-08-22T11:44:00Z,1629632641,2021,11,44,234.4889,234.4889,69.94329,-51.75894,-999.00,-999.00,-999.0,no,no,no,4435372,SPIT,USIABP,ICE-PPR<br>DiskoBay,North
2021-08-22T12:43:03Z,1629636183,2021,12,43,234.5299,234.5299,69.9457,-51.76737,-999.00,-999.00,-999.0,no,no,no,4435372,SPIT,USIABP,ICE-PPR<br>DiskoBay,North
2021-08-22T13:13:00Z,1629637980,2021,13,13,234.5507,234.5507,69.94664,-51.77243,-999.00,-999.00,-999.0,no,no,no,4435372,SPIT,USIABP,ICE-PPR<br>DiskoBay,North
2021-08-22T13:42:57Z,1629639778,2021,13,43,234.5715,234.5715,69.94754,-51.77844,-999.00,-999.00,-999.0,no,no,no,4435372,SPIT,USIABP,ICE-PPR<br>DiskoBay,North
2021-08-22T14:13:03Z,1629641583,2021,14,13,234.5924,234.5924,69.94819,-51.78577,-999.00,-999.00,-999.0,no,no,no,4435372,SPIT,USIABP,ICE-PPR<br>DiskoBay,North
2021-08-22T14:43:00Z,1629643380,2021,14,43,234.6132,234.6132,69.9487,-51.79479,-999.00,-999.00,-999.0,no,no,no,4435372,SPIT,USIABP,ICE-PPR<br>DiskoBay,North
2021-08-22T15:12:57Z,1629645178,2021,15,13,234.634,234.634,69.94926,-51.8038,-999.00,-999.00,-999.0,no,no,no,4435372,SPIT,USIABP,ICE-PPR<br>DiskoBay,North
2021-08-22T19:40:56Z,1629661257,2021,19,41,234.8201,234.8201,69.94613,-51.86383,-999.00,-999.00,-999.0,no,no,no,4435372,SPIT,USIABP,ICE-PPR<br>DiskoBay,North
2021-08-23T00:39:01Z,1629679141,2021,0,39,235.0271,235.0271,69.94698,-51.93018,-999.00,-999.00,-999.0,no,no,no,4435372,SPIT,USIABP,ICE-PPR<br>DiskoBay,North
2021-08-23T01:08:58Z,1629680939,2021,1,9,235.0479,235.0479,69.94746,-51.9451,-999.00,-999.00,-999.0,no,no,no,4435372,SPIT,USIABP,ICE-PPR<br>DiskoBay,North
2021-08-23T01:38:55Z,1629682736,2021,1,39,235.0687,235.0687,69.94749,-51.96103,-999.00,-999.00,-999.0,no,no,no,4435372,SPIT,USIABP,ICE-PPR<br>DiskoBay,North
2021-08-23T02:09:01Z,1629684541,2021,2,9,235.0896,235.0896,69.94753,-51.97605,-999.00,-999.00,-999.0,no,no,no,4435372,SPIT,USIABP,ICE-PPR<br>DiskoBay,North
2021-08-23T02:38:58Z,1629686339,2021,2,39,235.1104,235.1104,69.9474,-51.99167,-999.00,-999.00,-999.0,no,no,no,4435372,SPIT,USIABP,ICE-PPR<br>DiskoBay,North
2021-08-23T04:07:58Z,1629691678,2021,4,8,235.1722,235.1722,69.94504,-52.03766,-999.00,-999.00,-999.0,no,no,no,4435372,SPIT,USIABP,ICE-PPR<br>DiskoBay,North
2021-08-23T04:38:03Z,1629693484,2021,4,38,235.1931,235.1931,69.94311,-52.05323,-999.00,-999.00,-999.0,no,no,no,4435372,SPIT,USIABP,ICE-PPR<br>DiskoBay,North
2021-08-23T05:08:00Z,1629695281,2021,5,8,235.2139,235.2139,69.94135,-52.06937,-999.00,-999.00,-999.0,no,no,no,4435372,SPIT,USIABP,ICE-PPR<br>DiskoBay,North
2021-08-23T05:37:58Z,1629697078,2021,5,38,235.2347,235.2347,69.93989,-52.0863,-999.00,-999.00,-999.0,no,no,no,4435372,SPIT,USIABP,ICE-PPR<br>DiskoBay,North
2021-08-23T06:38:00Z,1629700681,2021,6,38,235.2764,235.2764,69.93582,-52.10698,-999.00,-999.00,-999.0,no,no,no,4435372,SPIT,USIABP,ICE-PPR<br>DiskoBay,North
2021-08-23T07:07:58Z,1629702478,2021,7,8,235.2972,235.2972,69.93389,-52.11762,-999.00,-999.00,-999.0,no,no,no,4435372,SPIT,USIABP,ICE-PPR<br>DiskoBay,North
2021-08-23T07:38:03Z,1629704284,2021,7,38,235.3181,235.3181,69.93213,-52.12723,-999.00,-999.00,-999.0,no,no,no,4435372,SPIT,USIABP,ICE-PPR<br>DiskoBay,North
2021-08-23T09:37:00Z,1629711420,2021,9,37,235.4007,235.4007,69.92444,-52.14741,-999.00,-999.00,-999.0,no,no,no,4435372,SPIT,USIABP,ICE-PPR<br>DiskoBay,North
2021-08-23T10:06:57Z,1629713218,2021,10,7,235.4215,235.4215,69.92223,-52.15039,-999.00,-999.00,-999.0,no,no,no,4435372,SPIT,USIABP,ICE-PPR<br>DiskoBay,North
2021-08-23T10:37:03Z,1629715023,2021,10,37,235.4424,235.4424,69.91977,-52.1535,-999.00,-999.00,-999.0,no,no,no,4435372,SPIT,USIABP,ICE-PPR<br>DiskoBay,North
2021-08-23T19:02:55Z,1629745376,2021,19,3,235.7937,235.7937,69.89346,-52.34021,-999.00,-999.00,-999.0,no,no,no,4435372,SPIT,USIABP,ICE-PPR<br>DiskoBay,North
2021-08-23T19:33:01Z,1629747181,2021,19,33,235.8146,235.8146,69.89299,-52.34174,-999.00,-999.00,-999.0,no,no,no,4435372,SPIT,USIABP,ICE-PPR<br>DiskoBay,North
2021-08-23T20:02:58Z,1629748979,2021,20,3,235.8354,235.8354,69.89209,-52.34294,-999.00,-999.00,-999.0,no,no,no,4435372,SPIT,USIABP,ICE-PPR<br>DiskoBay,North
2021-08-23T20:33:04Z,1629750784,2021,20,33,235.8563,235.8563,69.8914,-52.34534,-999.00,-999.00,-999.0,no,no,no,4435372,SPIT,USIABP,ICE-PPR<br>DiskoBay,North
2021-08-23T21:03:01Z,1629752581,2021,21,3,235.8771,235.8771,69.89125,-52.34613,-999.00,-999.00,-999.0,no,no,no,4435372,SPIT,USIABP,ICE-PPR<br>DiskoBay,North
2021-08-23T21:32:58Z,1629754379,2021,21,33,235.8979,235.8979,69.891,-52.34693,-999.00,-999.00,-999.0,no,no,no,4435372,SPIT,USIABP,ICE-PPR<br>DiskoBay,North
2021-08-23T22:02:55Z,1629756176,2021,22,3,235.9187,235.9187,69.891,-52.34856,-999.00,-999.00,-999.0,no,no,no,4435372,SPIT,USIABP,ICE-PPR<br>DiskoBay,North
2021-08-23T22:33:01Z,1629757981,2021,22,33,235.9396,235.9396,69.891,-52.35028,-999.00,-999.00,-999.0,no,no,no,4435372,SPIT,USIABP,ICE-PPR<br>DiskoBay,North
2021-08-23T23:01:58Z,1629759718,2021,23,2,235.9597,235.9597,69.89127,-52.3526,-999.00,-999.00,-999.0,no,no,no,4435372,SPIT,USIABP,ICE-PPR<br>DiskoBay,North
2021-08-23T23:32:03Z,1629761524,2021,23,32,235.9806,235.9806,69.89162,-52.35638,-999.00,-999.00,-999.0,no,no,no,4435372,SPIT,USIABP,ICE-PPR<br>DiskoBay,North
2021-08-24T00:02:00Z,1629763321,2021,0,2,236.0014,236.0014,69.89196,-52.36282,-999.00,-999.00,-999.0,no,no,no,4435372,SPIT,USIABP,ICE-PPR<br>DiskoBay,North
2021-08-24T00:31:58Z,1629765118,2021,0,32,236.0222,236.0222,69.89273,-52.37164,-999.00,-999.00,-999.0,no,no,no,4435372,SPIT,USIABP,ICE-PPR<br>DiskoBay,North
2021-08-24T01:01:03Z,1629766863,2021,1,1,236.0424,236.0424,69.8936,-52.38154,-999.00,-999.00,-999.0,no,no,no,4435372,SPIT,USIABP,ICE-PPR<br>DiskoBay,North
2021-08-24T01:31:00Z,1629768660,2021,1,31,236.0632,236.0632,69.89484,-52.39338,-999.00,-999.00,-999.0,no,no,no,4435372,SPIT,USIABP,ICE-PPR<br>DiskoBay,North
2021-08-24T02:00:57Z,1629770458,2021,2,1,236.084,236.084,69.89587,-52.40634,-999.00,-999.00,-999.0,no,no,no,4435372,SPIT,USIABP,ICE-PPR<br>DiskoBay,North
2021-08-24T02:31:03Z,1629772263,2021,2,31,236.1049,236.1049,69.89722,-52.42148,-999.00,-999.00,-999.0,no,no,no,4435372,SPIT,USIABP,ICE-PPR<br>DiskoBay,North
2021-08-24T03:01:00Z,1629774060,2021,3,1,236.1257,236.1257,69.89856,-52.4353,-999.00,-999.00,-999.0,no,no,no,4435372,SPIT,USIABP,ICE-PPR<br>DiskoBay,North
2021-08-24T03:29:57Z,1629775797,2021,3,30,236.1458,236.1458,69.89963,-52.44727,-999.00,-999.00,-999.0,no,no,no,4435372,SPIT,USIABP,ICE-PPR<br>DiskoBay,North
2021-08-24T04:00:02Z,1629777603,2021,4,0,236.1667,236.1667,69.90072,-52.45889,-999.00,-999.00,-999.0,no,no,no,4435372,SPIT,USIABP,ICE-PPR<br>DiskoBay,North
2021-08-24T04:30:00Z,1629779400,2021,4,30,236.1875,236.1875,69.90217,-52.47147,-999.00,-999.00,-999.0,no,no,no,4435372,SPIT,USIABP,ICE-PPR<br>DiskoBay,North
2021-08-24T04:59:57Z,1629781197,2021,5,0,236.2083,236.2083,69.90394,-52.48425,-999.00,-999.00,-999.0,no,no,no,4435372,SPIT,USIABP,ICE-PPR<br>DiskoBay,North
2021-08-24T05:30:02Z,1629783003,2021,5,30,236.2292,236.2292,69.9062,-52.49545,-999.00,-999.00,-999.0,no,no,no,4435372,SPIT,USIABP,ICE-PPR<br>DiskoBay,North
2021-08-24T06:00:00Z,1629784800,2021,6,0,236.25,236.25,69.9087,-52.50531,-999.00,-999.00,-999.0,no,no,no,4435372,SPIT,USIABP,ICE-PPR<br>DiskoBay,North
2021-08-24T06:29:57Z,1629786597,2021,6,30,236.2708,236.2708,69.9111,-52.51346,-999.00,-999.00,-999.0,no,no,no,4435372,SPIT,USIABP,ICE-PPR<br>DiskoBay,North
2021-08-24T06:59:02Z,1629788342,2021,6,59,236.291,236.291,69.91289,-52.51928,-999.00,-999.00,-999.0,no,no,no,4435372,SPIT,USIABP,ICE-PPR<br>DiskoBay,North
2021-08-24T07:28:59Z,1629790140,2021,7,29,236.3118,236.3118,69.91464,-52.52426,-999.00,-999.00,-999.0,no,no,no,4435372,SPIT,USIABP,ICE-PPR<br>DiskoBay,North
2021-08-24T07:58:56Z,1629791937,2021,7,59,236.3326,236.3326,69.91615,-52.52829,-999.00,-999.00,-999.0,no,no,no,4435372,SPIT,USIABP,ICE-PPR<br>DiskoBay,North
2021-08-24T08:29:02Z,1629793742,2021,8,29,236.3535,236.3535,69.91773,-52.53067,-999.00,-999.00,-999.0,no,no,no,4435372,SPIT,USIABP,ICE-PPR<br>DiskoBay,North
2021-08-24T08:57:59Z,1629795479,2021,8,58,236.3736,236.3736,69.91939,-52.53237,-999.00,-999.00,-999.0,no,no,no,4435372,SPIT,USIABP,ICE-PPR<br>DiskoBay,North
2021-08-24T09:27:56Z,1629797276,2021,9,28,236.3944,236.3944,69.92072,-52.53383,-999.00,-999.00,-999.0,no,no,no,4435372,SPIT,USIABP,ICE-PPR<br>DiskoBay,North
2021-08-24T09:58:01Z,1629799082,2021,9,58,236.4153,236.4153,69.92252,-52.53555,-999.00,-999.00,-999.0,no,no,no,4435372,SPIT,USIABP,ICE-PPR<br>DiskoBay,North
2021-08-24T10:56:55Z,1629802616,2021,10,57,236.4562,236.4562,69.927,-52.53974,-999.00,-999.00,-999.0,no,no,no,4435372,SPIT,USIABP,ICE-PPR<br>DiskoBay,North
2021-08-24T11:27:01Z,1629804421,2021,11,27,236.4771,236.4771,69.93052,-52.5412,-999.00,-999.00,-999.0,no,no,no,4435372,SPIT,USIABP,ICE-PPR<br>DiskoBay,North
2021-08-24T11:56:58Z,1629806219,2021,11,57,236.4979,236.4979,69.93451,-52.54257,-999.00,-999.00,-999.0,no,no,no,4435372,SPIT,USIABP,ICE-PPR<br>DiskoBay,North
2021-08-24T13:56:03Z,1629813364,2021,13,56,236.5806,236.5806,69.9467,-52.56732,-999.00,-999.00,-999.0,no,no,no,4435372,SPIT,USIABP,ICE-PPR<br>DiskoBay,North
2021-08-24T14:26:00Z,1629815161,2021,14,26,236.6014,236.6014,69.94945,-52.57925,-999.00,-999.00,-999.0,no,no,no,4435372,SPIT,USIABP,ICE-PPR<br>DiskoBay,North
2021-08-24T14:55:58Z,1629816958,2021,14,56,236.6222,236.6222,69.95164,-52.59024,-999.00,-999.00,-999.0,no,no,no,4435372,SPIT,USIABP,ICE-PPR<br>DiskoBay,North
2021-08-24T15:26:03Z,1629818764,2021,15,26,236.6431,236.6431,69.95428,-52.60437,-999.00,-999.00,-999.0,no,no,no,4435372,SPIT,USIABP,ICE-PPR<br>DiskoBay,North
2021-08-24T21:24:02Z,1629840243,2021,21,24,236.8917,236.8917,69.99615,-52.67789,-999.00,-999.00,-999.0,no,no,no,4435372,SPIT,USIABP,ICE-PPR<br>DiskoBay,North
2021-08-24T21:52:59Z,1629841980,2021,21,53,236.9118,236.9118,69.99933,-52.67161,-999.00,-999.00,-999.0,no,no,no,4435372,SPIT,USIABP,ICE-PPR<br>DiskoBay,North
2021-08-24T22:22:56Z,1629843777,2021,22,23,236.9326,236.9326,70.00169,-52.66406,-999.00,-999.00,-999.0,no,no,no,4435372,SPIT,USIABP,ICE-PPR<br>DiskoBay,North
2021-08-24T22:53:02Z,1629845582,2021,22,53,236.9535,236.9535,70.00404,-52.65851,-999.00,-999.00,-999.0,no,no,no,4435372,SPIT,USIABP,ICE-PPR<br>DiskoBay,North
2021-08-24T23:22:59Z,1629847380,2021,23,23,236.9743,236.9743,70.00588,-52.65494,-999.00,-999.00,-999.0,no,no,no,4435372,SPIT,USIABP,ICE-PPR<br>DiskoBay,North
2021-08-24T23:52:56Z,1629849177,2021,23,53,236.9951,236.9951,70.00742,-52.65271,-999.00,-999.00,-999.0,no,no,no,4435372,SPIT,USIABP,ICE-PPR<br>DiskoBay,North
2021-08-25T01:21:56Z,1629854516,2021,1,22,237.0569,237.0569,70.01694,-52.66796,-999.00,-999.00,-999.0,no,no,no,4435372,SPIT,USIABP,ICE-PPR<br>DiskoBay,North
2021-08-25T01:52:01Z,1629856322,2021,1,52,237.0778,237.0778,70.02191,-52.67755,-999.00,-999.00,-999.0,no,no,no,4435372,SPIT,USIABP,ICE-PPR<br>DiskoBay,North
2021-08-25T02:21:59Z,1629858119,2021,2,22,237.0986,237.0986,70.02728,-52.68976,-999.00,-999.00,-999.0,no,no,no,4435372,SPIT,USIABP,ICE-PPR<br>DiskoBay,North
2021-08-25T02:51:56Z,1629859916,2021,2,52,237.1194,237.1194,70.03281,-52.70245,-999.00,-999.00,-999.0,no,no,no,4435372,SPIT,USIABP,ICE-PPR<br>DiskoBay,North
